Location: Bourg-d�Oueil
(42.8588°N, 0.4991°E)
Time: 20:20:16
(UTC+00:00)

Cosmos 292 Rocket - Pass Details

Date: 16 June 2021
Orbit: 674 x 693 km, 74.0° (Epoch: 23 July)

Event Time Altitude Azimuth Distance (km) Brightness Sun altitude
Rises 20:41:43 0° 196° (SSW) 3,050 6.8 -9.7°
Reaches altitude 10° 20:44:01 10° 196° (SSW) 2,137 6.0 -10.0°
Maximum altitude 20:48:50 84° 109° (ESE) 699 3.7 -10.6°
Drops below altitude 10° 20:53:40 10° 22° (NNE) 2,142 6.7 -11.2°
Sets 20:55:59 0° 21° (NNE) 3,059 7.5 -11.5°
